Location: Newark
(34.0131°N, 4.3314°W)
Time: 15:22:19
(UTC+00:00)

Explorer 11/Cluster Stage 4 - Pass Details

Date: 27 October 2019
Orbit: 467 x 1259 km, 28.8° (Epoch: 12 November)

Event Time Altitude Azimuth Distance (km) Brightness Sun altitude
Rises 10:58:51 0° 259° (W) 2,503 9.1 40.9°
Reaches altitude 10° 11:01:55 10° 231° (SW) 1,605 8.5 41.1°
Maximum altitude 11:03:44 13° 200° (SSW) 1,420 8.7 41.3°
Drops below altitude 10° 11:05:33 10° 170° (S) 1,632 9.4 41.4°
Sets 11:08:45 0° 142° (SE) 2,582 10.0 41.6°
